Weather Roundup
Issued by NWS

Home | Current Version | Previous Version | Graphics & Text | Print | Product List | Glossary Off
Versions: 1 2 3 4 5 6 7 8 9 10 11 12 13 14 15 16 17 18 19 20 21 22 23 24 25 26 27 28 29 30 31 32 33 34 35 36 37 38 39 40 41 42 43 44 45 46 47 48 49 50

229
NZUS93 KARX 201510
HRRWXR

CURRENT HOURLY OBSERVATIONS ACROSS
MUCH OF THE UPPER MISSISSIPPI VALLEY
NATIONAL WEATHER SERVICE LA CROSSE WI
1000 AM CDT THU JUL 20 2017


...SOUTHEAST MINNESOTA...


CITY           SKY/WX    TMP DP  RH WIND       PRES   REMARKS
ROCHESTER      SUNNY     75  71  87 CALM      30.03R
ROCHESTER/MAYO FAIR      75  69  82 SE3       30.03S
WINONA         SUNNY     73  68  83 CALM      30.02R
AUSTIN         CLOUDY    75  68  78 E8        30.02S
ALBERT LEA     CLOUDY    75  72  88 E7        30.02R
DODGE CENTER   MOSUNNY   75  70  83 CALM      30.04R
PRESTON        CLOUDY    74  67  81 CALM      30.03S
OWATONNA       PTSUNNY   75  72  88 E3        30.03
FARIBAULT      CLOUDY    73  70  88 CALM      30.03R
$$

...ELSEWHERE IN MINNESOTA...


CITY           SKY/WX    TMP DP  RH WIND       PRES   REMARKS
MINNEAPOLIS    PTSUNNY   75  69  81 CALM      30.02R
INTNL FALLS    SUNNY     72  58  61 NW10      29.99S
DULUTH         MOSUNNY   73  65  75 NW10      29.99S
RED WING       CLOUDY    75  70  83 CALM      30.00S
REDWOOD FALLS  CLOUDY    74  68  81 VRB3      30.02R
MANKATO        CLOUDY    73  70  88 E5        30.04R
WORTHINGTON    CLOUDY    76  68  76 E12       30.03F
FAIRMONT       MOSUNNY   77  72  84 CALM      30.01F
$$

...SOUTHWEST WISCONSIN...


CITY           SKY/WX    TMP DP  RH WIND       PRES   REMARKS
LA CROSSE      MOSUNNY   78  69  73 S5        30.00R
PRAIRIE DU CHI MOSUNNY   72  70  95 CALM      29.98S
BOSCOBEL       CLOUDY    77  69  76 VRB3      29.99S
LONE ROCK      PTSUNNY   75  69  81 VRB3      30.00R
PLATTEVILLE    PTSUNNY   74  73  95 S8        30.00F
FORT MC COY    MOSUNNY   74  68  81 S5        30.02R
CAMP DOUGLAS   MOSUNNY   77  70  78 SW5       30.01R
MAUSTON-NEW LI MOSUNNY   76  70  81 SW5       30.00S HAZE
VIROQUA        FAIR      74  69  85 S3        30.02S
WIS DELLS      MOSUNNY   75  68  77 W3        30.00F
$$

...ELSEWHERE IN WISCONSIN...


CITY           SKY/WX    TMP DP  RH WIND       PRES   REMARKS
MILWAUKEE      CLOUDY    77  70  79 SW9       29.98R
MADISON        PTSUNNY   74  69  85 SW7       29.99S
GREEN BAY      MOSUNNY   78  71  79 W12       29.98R
EAU CLAIRE     PTSUNNY   72  68  87 W6        30.00F
BLACK RVR FLS  PTSUNNY   76  71  85 SW3       30.01S
MEDFORD        CLOUDY    70  65  82 W3        30.02S
WAUSAU         CLOUDY    73  65  75 W8        30.00S
WIS RAPIDS     PTSUNNY   75  69  81 NW7       30.03R
MARSHFIELD     CLOUDY    72  66  81 W6        30.02S
RICE LAKE      CLOUDY    70  65  83 SW3       30.03R
$$

...NORTHEAST IOWA...


CITY           SKY/WX    TMP DP  RH WIND       PRES   REMARKS
WATERLOO       CLOUDY    83  74  74 SE6       29.95S
DUBUQUE        MOSUNNY   74  70  87 S7G23     30.01R
DECORAH          N/A     73  70  88 SE3       30.01R
MASON CITY     CLOUDY    75  72  90 NE10      30.02R FOG
CHARLES CITY   CLOUDY    75  73  94 E7        30.00S
OELWEIN        SUNNY     77  73  88 SE7G13    29.99R
$$

...ELSEWHERE IN IOWA...


CITY           SKY/WX    TMP DP  RH WIND       PRES   REMARKS
DES MOINES     PTSUNNY   88  73  61 W8        29.96S HX  95
IOWA CITY      CLOUDY    82  76  81 SE6       29.99F
FORT DODGE     SUNNY     82  72  69 NE6       29.99S
MARSHALLTOWN   CLOUDY    84  75  74 NW5       29.97S HX  92
CEDAR RAPIDS   CLOUDY    79  78  97 S6        29.98S
$$

...NORTHERN ILLINOIS...


CITY           SKY/WX    TMP DP  RH WIND       PRES   REMARKS
CHICAGO-OHARE  CLOUDY    74  69  85 SW13G24   29.97F
CHICAGO-MIDWAY CLOUDY    72  70  93 S13G22    29.99F
MOLINE         CLOUDY    79  72  79 SE6       30.00S
ROCKFORD       PTSUNNY   77  71  82 S10       30.00F
PEORIA         CLOUDY    76  74  93 E7        30.05F
$$

NOTE: "FAIR" INDICATES FEW OR NO CLOUDS BELOW 12,000 FEET WITH NO
SIGNIFICANT WEATHER AND/OR OBSTRUCTIONS TO VISIBILITY. WIND
SPEEDS ARE IN MILES-PER-HOUR.




USA.gov is the U.S. government's official web portal to all federal, state and local government web resources and services.